Time,TemperatureF,DewpointF,PressureIn,WindDirection,WindDirectionDegrees,WindSpeedMPH,WindSpeedGustMPH,Humidity,HourlyPrecipIn,Conditions,Clouds,dailyrainin,SoftwareType,DateUTC
2013-09-17 00:03:00,51.8,-99.9,-100.00,North,-999,0.0,0.0,-999,0.00,,,-99.99,WeatherLink 5.4,2013-09-17 04:03:00,
2013-09-17 00:33:00,50.7,-99.9,-100.00,North,-999,0.0,0.0,-999,0.00,,,-99.99,WeatherLink 5.4,2013-09-17 04:33:00,
2013-09-17 01:03:00,50.7,-99.9,-100.00,North,-999,0.0,0.0,-999,0.00,,,-99.99,WeatherLink 5.4,2013-09-17 05:03:00,
2013-09-17 01:33:00,49.8,-99.9,-100.00,North,-999,0.0,0.0,-999,0.00,,,-99.99,WeatherLink 5.4,2013-09-17 05:33:00,
2013-09-17 02:03:00,48.9,-99.9,-100.00,North,-999,0.0,0.0,-999,0.00,,,-99.99,WeatherLink 5.4,2013-09-17 06:03:00,
2013-09-17 02:33:00,48.9,-99.9,-100.00,North,-999,0.0,0.0,-999,0.00,,,-99.99,WeatherLink 5.4,2013-09-17 06:33:00,
2013-09-17 03:03:00,48.7,-99.9,-100.00,North,-999,0.0,0.0,-999,0.00,,,-99.99,WeatherLink 5.4,2013-09-17 07:03:00,
2013-09-17 03:33:00,48.2,-99.9,-100.00,North,-999,0.0,0.0,-999,0.00,,,-99.99,WeatherLink 5.4,2013-09-17 07:33:00,
2013-09-17 04:03:00,47.4,-99.9,-100.00,North,-999,0.0,0.0,-999,0.00,,,-99.99,WeatherLink 5.4,2013-09-17 08:03:00,
2013-09-17 04:33:00,46.2,-99.9,-100.00,North,-999,0.0,0.0,-999,0.00,,,-99.99,WeatherLink 5.4,2013-09-17 08:33:00,
2013-09-17 05:03:00,45.7,-99.9,-100.00,North,-999,0.0,0.0,-999,0.00,,,-99.99,WeatherLink 5.4,2013-09-17 09:03:00,
2013-09-17 05:33:00,45.6,-99.9,-100.00,North,-999,0.0,0.0,-999,0.00,,,-99.99,WeatherLink 5.4,2013-09-17 09:33:00,
2013-09-17 06:03:00,45.3,-99.9,-100.00,North,-999,0.0,0.0,-999,0.00,,,-99.99,WeatherLink 5.4,2013-09-17 10:03:00,
2013-09-17 06:33:00,44.4,-99.9,-100.00,North,-999,0.0,0.0,-999,0.00,,,-99.99,WeatherLink 5.4,2013-09-17 10:33:00,
2013-09-17 07:03:00,43.7,-99.9,-100.00,North,-999,0.0,0.0,-999,0.00,,,-99.99,WeatherLink 5.4,2013-09-17 11:03:00,
2013-09-17 07:33:00,42.6,-99.9,-100.00,North,-999,0.0,0.0,-999,0.00,,,-99.99,WeatherLink 5.4,2013-09-17 11:33:00,
2013-09-17 08:03:00,42.3,-99.9,-100.00,North,-999,0.0,0.0,-999,0.00,,,-99.99,WeatherLink 5.4,2013-09-17 12:03:00,
2013-09-17 08:33:00,43.2,-99.9,-100.00,North,-999,0.0,0.0,-999,0.00,,,-99.99,WeatherLink 5.4,2013-09-17 12:33:00,
2013-09-17 09:03:00,45.4,-99.9,-100.00,North,-999,0.0,0.0,-999,0.00,,,-99.99,WeatherLink 5.4,2013-09-17 13:03:00,
2013-09-17 09:33:00,46.7,-99.9,-100.00,North,0,0.0,2.0,-999,0.00,,,-99.99,WeatherLink 5.4,2013-09-17 13:33:00,
2013-09-17 10:03:00,48.9,-99.9,-100.00,North,-999,0.0,0.0,-999,0.00,,,-99.99,WeatherLink 5.4,2013-09-17 14:03:00,
2013-09-17 10:33:00,50.0,-99.9,-100.00,North,-999,0.0,1.0,-999,0.00,,,-99.99,WeatherLink 5.4,2013-09-17 14:33:00,
2013-09-17 11:03:00,51.7,-99.9,-100.00,North,0,0.0,2.0,-999,0.00,,,-99.99,WeatherLink 5.4,2013-09-17 15:03:00,
2013-09-17 11:33:00,52.8,-99.9,-100.00,North,-999,0.0,0.0,-999,0.00,,,-99.99,WeatherLink 5.4,2013-09-17 15:33:00,
2013-09-17 12:03:00,54.7,-99.9,-100.00,North,-999,0.0,0.0,-999,0.01,,,-99.99,WeatherLink 5.4,2013-09-17 16:03:00,
2013-09-17 12:33:00,55.7,-99.9,-100.00,North,-999,0.0,0.0,-999,0.01,,,-99.99,WeatherLink 5.4,2013-09-17 16:33:00,
2013-09-17 13:03:00,57.3,-99.9,-100.00,North,0,0.0,3.0,-999,0.00,,,-99.99,WeatherLink 5.4,2013-09-17 17:03:00,
2013-09-17 13:33:00,59.0,-99.9,-100.00,North,-999,0.0,0.0,-999,0.00,,,-99.99,WeatherLink 5.4,2013-09-17 17:33:00,
2013-09-17 14:03:00,71.5,-99.9,-100.00,SW,225,0.0,7.0,-999,0.00,,,-99.99,WeatherLink 5.4,2013-09-17 18:03:00,
2013-09-17 14:33:00,63.8,-99.9,-100.00,West,270,0.0,1.0,-999,0.00,,,-99.99,WeatherLink 5.4,2013-09-17 18:33:00,
2013-09-17 15:03:00,65.3,-99.9,-100.00,West,270,0.0,2.0,-999,0.00,,,-99.99,WeatherLink 5.4,2013-09-17 19:03:00,
2013-09-17 15:33:00,66.1,-99.9,-100.00,WNW,292,0.0,2.0,-999,0.00,,,-99.99,WeatherLink 5.4,2013-09-17 19:33:00,
2013-09-17 16:03:00,67.5,-99.9,-100.00,WSW,247,0.0,2.0,-999,0.00,,,-99.99,WeatherLink 5.4,2013-09-17 20:03:00,
2013-09-17 16:33:00,67.6,-99.9,-100.00,WSW,247,0.0,1.0,-999,0.00,,,-99.99,WeatherLink 5.4,2013-09-17 20:33:00,
2013-09-17 17:03:00,67.8,-99.9,-100.00,SW,225,0.0,7.0,-999,0.00,,,-99.99,WeatherLink 5.4,2013-09-17 21:03:00,
2013-09-17 17:33:00,67.9,-99.9,-100.00,WSW,247,0.0,3.0,-999,0.00,,,-99.99,WeatherLink 5.4,2013-09-17 21:33:00,
2013-09-17 18:03:00,67.7,-99.9,-100.00,WSW,247,0.0,5.0,-999,0.00,,,-99.99,WeatherLink 5.4,2013-09-17 22:03:00,
2013-09-17 18:33:00,67.2,-99.9,-100.00,WSW,247,0.0,2.0,-999,0.00,,,-99.99,WeatherLink 5.4,2013-09-17 22:33:00,
2013-09-17 19:03:00,65.8,-99.9,-100.00,WSW,247,0.0,4.0,-999,0.00,,,-99.99,WeatherLink 5.4,2013-09-17 23:03:00,
2013-09-17 19:33:00,64.4,-99.9,-100.00,North,-999,0.0,0.0,-999,0.00,,,-99.99,WeatherLink 5.4,2013-09-17 23:33:00,
2013-09-17 20:03:00,60.2,-99.9,-100.00,North,-999,0.0,0.0,-999,0.00,,,-99.99,WeatherLink 5.4,2013-09-18 00:03:00,
2013-09-17 20:33:00,56.5,-99.9,-100.00,North,-999,0.0,0.0,-999,0.00,,,-99.99,WeatherLink 5.4,2013-09-18 00:33:00,
2013-09-17 21:03:00,54.3,-99.9,-100.00,North,-999,0.0,0.0,-999,0.00,,,-99.99,WeatherLink 5.4,2013-09-18 01:03:00,
2013-09-17 21:33:00,53.8,-99.9,-100.00,North,-999,0.0,0.0,-999,0.00,,,-99.99,WeatherLink 5.4,2013-09-18 01:33:00,
2013-09-17 22:03:00,53.7,-99.9,-100.00,North,-999,0.0,0.0,-999,0.00,,,-99.99,WeatherLink 5.4,2013-09-18 02:03:00,
2013-09-17 22:33:00,54.3,-99.9,-100.00,North,-999,0.0,0.0,-999,0.00,,,-99.99,WeatherLink 5.4,2013-09-18 02:33:00,
2013-09-17 23:04:00,53.5,-99.9,-100.00,North,-999,0.0,0.0,-999,0.00,,,-99.99,WeatherLink 5.4,2013-09-18 03:04:00,
2013-09-17 23:33:00,53.1,-99.9,-100.00,North,-999,0.0,0.0,-999,0.00,,,-99.99,WeatherLink 5.4,2013-09-18 03:33:00,